Time,TemperatureF,DewpointF,PressureIn,WindDirection,WindDirectionDegrees,WindSpeedMPH,WindSpeedGustMPH,Humidity,HourlyPrecipIn,Conditions,Clouds,dailyrainin,SolarRadiationWatts/m^2,SoftwareType,DateUTC
2013-03-25 00:00:00,37.0,18.2,29.60,NE,40,2.0,6.0,46,0.00,,CLR,0.00,0.00,VWS V14.01,2013-03-25 04:00:00,
2013-03-25 00:05:00,36.9,18.1,29.60,NE,40,0.0,2.0,46,0.00,,CLR,0.00,0.00,VWS V14.01,2013-03-25 04:05:00,
2013-03-25 00:10:00,36.9,18.1,29.60,NE,40,2.0,3.0,46,0.00,,CLR,0.00,0.00,VWS V14.01,2013-03-25 04:10:00,
2013-03-25 00:15:00,36.8,18.5,29.60,NE,40,3.0,6.0,47,0.00,,CLR,0.00,0.00,VWS V14.01,2013-03-25 04:15:00,
2013-03-25 00:20:00,36.8,18.5,29.60,NE,40,2.0,3.0,47,0.00,,CLR,0.00,0.00,VWS V14.01,2013-03-25 04:20:00,
2013-03-25 00:25:00,36.8,18.0,29.60,NE,40,2.0,5.0,46,0.00,,CLR,0.00,0.00,VWS V14.01,2013-03-25 04:25:00,
2013-03-25 00:30:00,36.8,18.5,29.60,NE,38,5.0,6.0,47,0.00,,CLR,0.00,0.00,VWS V14.01,2013-03-25 04:30:00,
2013-03-25 00:35:00,36.6,18.3,29.60,NE,38,3.0,5.0,47,0.00,,CLR,0.00,0.00,VWS V14.01,2013-03-25 04:35:00,
2013-03-25 00:40:00,36.6,17.8,29.60,NE,51,3.0,6.0,46,0.00,,CLR,0.00,0.00,VWS V14.01,2013-03-25 04:40:00,
2013-03-25 00:45:00,36.5,18.2,29.59,NNE,28,6.0,6.0,47,0.00,,CLR,0.00,0.00,VWS V14.01,2013-03-25 04:45:00,
2013-03-25 00:50:00,36.5,17.7,29.59,NNE,28,2.0,2.0,46,0.00,,CLR,0.00,0.00,VWS V14.01,2013-03-25 04:50:00,
2013-03-25 00:55:00,36.5,17.7,29.59,NNE,28,2.0,6.0,46,0.00,,CLR,0.00,0.00,VWS V14.01,2013-03-25 04:55:00,
2013-03-25 01:00:00,36.3,18.0,29.59,North,0,3.0,3.0,47,0.00,,CLR,0.00,0.00,VWS V14.01,2013-03-25 05:00:00,
2013-03-25 01:05:00,36.3,17.5,29.59,North,0,1.0,2.0,46,0.00,,CLR,0.00,0.00,VWS V14.01,2013-03-25 05:05:00,
2013-03-25 01:10:00,36.3,17.5,29.59,NE,52,1.0,3.0,46,0.00,,CLR,0.00,0.00,VWS V14.01,2013-03-25 05:10:00,
2013-03-25 01:15:00,36.3,17.5,29.59,NE,51,0.0,2.0,46,0.00,,CLR,0.00,0.00,VWS V14.01,2013-03-25 05:15:00,
2013-03-25 01:20:00,36.2,17.4,29.59,NE,51,0.0,0.0,46,0.00,,CLR,0.00,0.00,VWS V14.01,2013-03-25 05:20:00,
2013-03-25 01:25:00,36.2,16.9,29.59,NE,51,0.0,0.0,45,0.00,,CLR,0.00,0.00,VWS V14.01,2013-03-25 05:25:00,
2013-03-25 01:30:00,36.2,17.4,29.59,NE,51,0.0,0.0,46,0.00,,CLR,0.00,0.00,VWS V14.01,2013-03-25 05:30:00,
2013-03-25 01:35:00,36.0,17.2,29.59,NE,51,0.0,4.0,46,0.00,,CLR,0.00,0.00,VWS V14.01,2013-03-25 05:35:00,
2013-03-25 01:40:00,36.0,17.2,29.59,NE,51,0.0,0.0,46,0.00,,CLR,0.00,0.00,VWS V14.01,2013-03-25 05:40:00,
2013-03-25 01:45:00,36.0,17.2,29.59,NE,51,0.0,0.0,46,0.00,,CLR,0.00,0.00,VWS V14.01,2013-03-25 05:45:00,
2013-03-25 01:50:00,35.9,17.1,29.59,NE,51,0.0,0.0,46,0.00,,CLR,0.00,0.00,VWS V14.01,2013-03-25 05:50:00,
2013-03-25 01:55:00,35.9,17.6,29.59,NE,51,0.0,0.0,47,0.00,,CLR,0.00,0.00,VWS V14.01,2013-03-25 05:55:00,
2013-03-25 02:00:00,35.9,17.6,29.58,NE,51,0.0,0.0,47,0.00,,CLR,0.00,0.00,VWS V14.01,2013-03-25 06:00:00,
2013-03-25 02:05:00,35.8,17.6,29.58,NE,51,0.0,0.0,47,0.00,,CLR,0.00,0.00,VWS V14.01,2013-03-25 06:05:00,
2013-03-25 02:10:00,35.8,18.0,29.58,NE,44,3.0,3.0,48,0.00,,CLR,0.00,0.00,VWS V14.01,2013-03-25 06:10:00,
2013-03-25 02:15:00,35.8,18.0,29.57,NNE,30,3.0,7.0,48,0.00,,CLR,0.00,0.00,VWS V14.01,2013-03-25 06:15:00,
2013-03-25 02:20:00,35.8,18.5,29.57,NNE,30,5.0,5.0,49,0.00,,CLR,0.00,0.00,VWS V14.01,2013-03-25 06:20:00,
2013-03-25 02:25:00,35.8,18.0,29.57,NNE,28,2.0,6.0,48,0.00,,CLR,0.00,0.00,VWS V14.01,2013-03-25 06:25:00,
2013-03-25 02:30:00,35.8,18.5,29.57,NE,38,2.0,4.0,49,0.00,,CLR,0.00,0.00,VWS V14.01,2013-03-25 06:30:00,
2013-03-25 02:35:00,35.8,18.0,29.57,NE,34,2.0,5.0,48,0.00,,CLR,0.00,0.00,VWS V14.01,2013-03-25 06:35:00,
2013-03-25 02:40:00,35.6,18.3,29.57,NE,34,0.0,0.0,49,0.00,,CLR,0.00,0.00,VWS V14.01,2013-03-25 06:40:00,
2013-03-25 02:45:00,35.6,17.9,29.57,NE,48,0.0,6.0,48,0.00,,CLR,0.00,0.00,VWS V14.01,2013-03-25 06:45:00,
2013-03-25 02:50:00,35.6,17.9,29.57,NE,54,0.0,0.0,48,0.00,,CLR,0.00,0.00,VWS V14.01,2013-03-25 06:50:00,
2013-03-25 02:55:00,35.6,17.9,29.57,NE,54,2.0,2.0,48,0.00,,CLR,0.00,0.00,VWS V14.01,2013-03-25 06:55:00,
2013-03-25 03:03:00,35.5,18.2,29.56,NE,54,0.0,0.0,49,0.00,,CLR,0.00,0.00,VWS V14.01,2013-03-25 07:03:00,
2013-03-25 03:08:00,35.5,18.2,29.56,NE,54,0.0,0.0,49,0.00,,CLR,0.00,0.00,VWS V14.01,2013-03-25 07:08:00,
2013-03-25 03:13:00,35.5,18.2,29.56,NE,54,0.0,0.0,49,0.00,,CLR,0.00,0.00,VWS V14.01,2013-03-25 07:13:00,
2013-03-25 03:18:00,35.3,18.5,29.55,NE,54,0.0,0.0,50,0.00,,OVC110,0.00,0.00,VWS V14.01,2013-03-25 07:18:00,
2013-03-25 03:23:00,35.3,19.0,29.55,ENE,71,0.0,0.0,51,0.00,,OVC110,0.00,0.00,VWS V14.01,2013-03-25 07:23:00,
2013-03-25 03:28:00,35.3,19.5,29.55,NE,52,0.0,3.0,52,0.00,,OVC110,0.00,0.00,VWS V14.01,2013-03-25 07:28:00,
2013-03-25 03:33:00,35.3,19.5,29.54,NE,52,0.0,3.0,52,0.00,,OVC110,0.00,0.00,VWS V14.01,2013-03-25 07:33:00,
2013-03-25 03:38:00,35.2,19.8,29.54,NE,52,0.0,0.0,53,0.00,,OVC110,0.00,0.00,VWS V14.01,2013-03-25 07:38:00,
2013-03-25 03:43:00,35.2,19.8,29.54,ESE,104,0.0,2.0,53,0.00,,OVC110,0.00,0.00,VWS V14.01,2013-03-25 07:43:00,
2013-03-25 03:48:00,35.0,19.6,29.53,NE,35,0.0,6.0,53,0.00,,OVC110,0.00,0.00,VWS V14.01,2013-03-25 07:48:00,
2013-03-25 03:53:00,35.0,19.6,29.53,NE,35,1.0,1.0,53,0.00,,OVC110,0.00,0.00,VWS V14.01,2013-03-25 07:53:00,
2013-03-25 03:58:00,35.0,20.0,29.53,NNE,23,3.0,8.0,54,0.00,,OVC110,0.00,0.00,VWS V14.01,2013-03-25 07:58:00,
2013-03-25 04:03:00,35.2,21.1,29.52,NNE,18,5.0,8.0,56,0.00,,OVC100,0.00,0.00,VWS V14.01,2013-03-25 08:03:00,
2013-03-25 04:08:00,35.2,21.1,29.52,NNE,24,8.0,8.0,56,0.00,,OVC100,0.00,0.00,VWS V14.01,2013-03-25 08:08:00,
2013-03-25 04:13:00,35.2,21.1,29.52,NNE,20,6.0,8.0,56,0.00,,OVC100,0.00,0.00,VWS V14.01,2013-03-25 08:13:00,
2013-03-25 04:18:00,35.2,21.5,29.51,NNE,28,2.0,5.0,57,0.00,,OVC100,0.00,0.00,VWS V14.01,2013-03-25 08:18:00,
2013-03-25 04:23:00,35.2,21.1,29.51,NNE,20,7.0,7.0,56,0.00,,OVC100,0.00,0.00,VWS V14.01,2013-03-25 08:23:00,
2013-03-25 04:28:00,35.0,21.3,29.51,NE,48,4.0,7.0,57,0.00,,OVC100,0.00,0.00,VWS V14.01,2013-03-25 08:28:00,
2013-03-25 04:33:00,35.0,21.3,29.52,NE,37,3.0,6.0,57,0.00,,OVC100,0.00,0.00,VWS V14.01,2013-03-25 08:33:00,
2013-03-25 04:38:00,35.0,21.3,29.52,NNE,25,5.0,7.0,57,0.00,,OVC100,0.00,0.00,VWS V14.01,2013-03-25 08:38:00,
2013-03-25 04:43:00,35.0,21.3,29.52,NE,37,4.0,7.0,57,0.00,,OVC100,0.00,0.00,VWS V14.01,2013-03-25 08:43:00,
2013-03-25 04:48:00,35.0,21.7,29.51,NNE,27,3.0,6.0,58,0.00,,OVC100,0.00,0.00,VWS V14.01,2013-03-25 08:48:00,
2013-03-25 04:53:00,35.0,21.7,29.51,NNE,30,5.0,6.0,58,0.00,,OVC100,0.00,0.00,VWS V14.01,2013-03-25 08:53:00,
2013-03-25 04:58:00,35.0,21.7,29.51,NNE,16,7.0,7.0,58,0.00,,OVC100,0.00,0.00,VWS V14.01,2013-03-25 08:58:00,
2013-03-25 05:03:00,35.0,21.3,29.50,NNE,20,6.0,7.0,57,0.00,,OVC090,0.00,0.00,VWS V14.01,2013-03-25 09:03:00,
2013-03-25 05:08:00,35.2,21.9,29.50,NNE,14,6.0,8.0,58,0.00,,OVC090,0.00,0.00,VWS V14.01,2013-03-25 09:08:00,
2013-03-25 05:13:00,35.2,21.5,29.50,North,4,6.0,7.0,57,0.00,,OVC090,0.00,0.00,VWS V14.01,2013-03-25 09:13:00,
2013-03-25 05:18:00,35.0,20.9,29.50,NNE,27,6.0,7.0,56,0.00,,OVC090,0.00,0.00,VWS V14.01,2013-03-25 09:18:00,
2013-03-25 05:23:00,35.2,21.1,29.50,NNE,28,4.0,5.0,56,0.00,,OVC090,0.00,0.00,VWS V14.01,2013-03-25 09:23:00,
2013-03-25 05:28:00,35.2,20.7,29.50,NNE,31,7.0,10.0,55,0.00,,OVC090,0.00,0.00,VWS V14.01,2013-03-25 09:28:00,
2013-03-25 05:33:00,35.2,20.7,29.51,NNE,28,1.0,3.0,55,0.00,,OVC090,0.00,0.00,VWS V14.01,2013-03-25 09:33:00,
2013-03-25 05:38:00,35.2,20.7,29.51,NE,34,5.0,5.0,55,0.00,,OVC090,0.00,0.00,VWS V14.01,2013-03-25 09:38:00,
2013-03-25 05:43:00,35.2,20.2,29.51,NE,41,3.0,5.0,54,0.00,,OVC090,0.00,0.00,VWS V14.01,2013-03-25 09:43:00,
2013-03-25 05:48:00,35.3,20.3,29.51,NNE,18,5.0,6.0,54,0.00,,OVC090,0.00,0.00,VWS V14.01,2013-03-25 09:48:00,
2013-03-25 05:53:00,35.2,19.8,29.51,NE,48,1.0,5.0,53,0.00,,OVC090,0.00,0.00,VWS V14.01,2013-03-25 09:53:00,
2013-03-25 05:58:00,35.2,19.8,29.51,NE,35,2.0,5.0,53,0.00,,OVC090,0.00,0.00,VWS V14.01,2013-03-25 09:58:00,
2013-03-25 06:03:00,35.3,19.5,29.52,NE,52,5.0,7.0,52,0.00,,OVC085,0.00,0.00,VWS V14.01,2013-03-25 10:03:00,
2013-03-25 06:08:00,35.3,19.5,29.52,NNE,28,2.0,8.0,52,0.00,,OVC085,0.00,0.00,VWS V14.01,2013-03-25 10:08:00,
2013-03-25 06:13:00,35.3,19.0,29.52,NE,45,6.0,12.0,51,0.00,,OVC085,0.00,0.00,VWS V14.01,2013-03-25 10:13:00,
2013-03-25 06:18:00,35.3,18.5,29.51,NNE,18,6.0,7.0,50,0.00,,OVC085,0.00,0.00,VWS V14.01,2013-03-25 10:18:00,
2013-03-25 06:23:00,35.5,18.7,29.51,NNE,32,6.0,7.0,50,0.00,,OVC085,0.00,0.00,VWS V14.01,2013-03-25 10:23:00,
2013-03-25 06:28:00,35.5,18.2,29.51,NE,45,5.0,13.0,49,0.00,,OVC085,0.00,0.00,VWS V14.01,2013-03-25 10:28:00,
2013-03-25 06:33:00,35.5,18.7,29.50,NNE,25,14.0,15.0,50,0.00,,OVC085,0.00,0.00,VWS V14.01,2013-03-25 10:33:00,
2013-03-25 06:38:00,35.5,18.7,29.50,ENE,76,5.0,11.0,50,0.00,,OVC085,0.00,0.00,VWS V14.01,2013-03-25 10:38:00,
2013-03-25 06:43:00,35.3,18.5,29.50,NE,37,6.0,13.0,50,0.00,,OVC085,0.00,0.00,VWS V14.01,2013-03-25 10:43:00,
2013-03-25 06:48:00,35.3,19.0,29.50,NNE,23,6.0,9.0,51,0.00,,OVC085,0.00,0.00,VWS V14.01,2013-03-25 10:48:00,
2013-03-25 06:53:00,35.3,19.5,29.50,NNE,23,13.0,13.0,52,0.00,,OVC085,0.00,0.00,VWS V14.01,2013-03-25 10:53:00,
2013-03-25 06:58:00,35.2,19.4,29.50,NE,44,6.0,17.0,52,0.00,,OVC085,0.00,0.00,VWS V14.01,2013-03-25 10:58:00,
2013-03-25 07:03:00,35.0,19.6,29.49,ENE,69,11.0,11.0,53,0.00,,OVC080,0.00,0.00,VWS V14.01,2013-03-25 11:03:00,
2013-03-25 07:08:00,35.0,19.2,29.49,NNE,31,9.0,11.0,52,0.00,,OVC080,0.00,0.00,VWS V14.01,2013-03-25 11:08:00,
2013-03-25 07:13:00,35.0,19.6,29.49,NNE,24,9.0,12.0,53,0.00,,OVC080,0.00,0.00,VWS V14.01,2013-03-25 11:13:00,
2013-03-25 07:18:00,34.9,19.5,29.50,NE,34,6.0,8.0,53,0.00,,OVC080,0.00,5.00,VWS V14.01,2013-03-25 11:18:00,
2013-03-25 07:23:00,34.9,19.5,29.50,NNE,32,3.0,10.0,53,0.00,,OVC080,0.00,11.00,VWS V14.01,2013-03-25 11:23:00,
2013-03-25 07:28:00,34.9,20.0,29.50,NNE,31,9.0,11.0,54,0.00,,OVC080,0.00,12.00,VWS V14.01,2013-03-25 11:28:00,
2013-03-25 07:33:00,34.9,19.5,29.50,NNE,25,10.0,14.0,53,0.00,,OVC080,0.00,14.00,VWS V14.01,2013-03-25 11:33:00,
2013-03-25 07:38:00,34.9,20.0,29.50,NE,38,6.0,11.0,54,0.00,,OVC080,0.00,16.00,VWS V14.01,2013-03-25 11:38:00,
2013-03-25 07:43:00,34.9,20.4,29.50,NNE,30,3.0,13.0,55,0.00,,OVC080,0.00,18.00,VWS V14.01,2013-03-25 11:43:00,
2013-03-25 07:48:00,35.0,20.9,29.51,NNE,16,3.0,11.0,56,0.00,,OVC080,0.00,21.00,VWS V14.01,2013-03-25 11:48:00,
2013-03-25 07:53:00,35.0,20.0,29.51,NNE,28,6.0,10.0,54,0.00,,OVC080,0.00,25.00,VWS V14.01,2013-03-25 11:53:00,
2013-03-25 07:58:00,35.0,20.5,29.51,NNE,24,3.0,8.0,55,0.00,,OVC080,0.00,28.00,VWS V14.01,2013-03-25 11:58:00,
2013-03-25 08:03:00,35.0,20.0,29.51,NE,55,3.0,7.0,54,0.00,,OVC065,0.00,30.00,VWS V14.01,2013-03-25 12:03:00,
2013-03-25 08:08:00,35.0,20.0,29.51,NNE,30,7.0,7.0,54,0.00,,OVC065,0.00,33.00,VWS V14.01,2013-03-25 12:08:00,
2013-03-25 08:13:00,35.0,20.0,29.51,NNE,24,10.0,11.0,54,0.00,,OVC065,0.00,40.00,VWS V14.01,2013-03-25 12:13:00,
2013-03-25 08:18:00,35.2,20.2,29.52,NNE,31,9.0,10.0,54,0.00,,OVC065,0.00,46.00,VWS V14.01,2013-03-25 12:18:00,
2013-03-25 08:23:00,35.2,20.7,29.52,North,0,5.0,9.0,55,0.00,,OVC065,0.00,48.00,VWS V14.01,2013-03-25 12:23:00,
2013-03-25 08:28:00,35.2,20.7,29.52,NNE,23,4.0,8.0,55,0.00,,OVC065,0.00,49.00,VWS V14.01,2013-03-25 12:28:00,
2013-03-25 08:33:00,35.2,20.2,29.52,NNE,21,6.0,14.0,54,0.00,,OVC065,0.00,53.00,VWS V14.01,2013-03-25 12:33:00,
2013-03-25 08:38:00,35.3,20.3,29.52,NE,38,6.0,14.0,54,0.00,,OVC065,0.00,55.00,VWS V14.01,2013-03-25 12:38:00,
2013-03-25 08:43:00,35.3,19.9,29.52,NE,52,5.0,10.0,53,0.00,,OVC065,0.00,65.00,VWS V14.01,2013-03-25 12:43:00,
2013-03-25 08:48:00,35.3,20.3,29.52,NNE,32,5.0,7.0,54,0.00,,OVC065,0.00,70.00,VWS V14.01,2013-03-25 12:48:00,
2013-03-25 08:53:00,35.3,20.8,29.52,ENE,62,5.0,8.0,55,0.00,,OVC065,0.00,77.00,VWS V14.01,2013-03-25 12:53:00,
2013-03-25 08:58:00,35.2,20.7,29.52,ENE,58,4.0,6.0,55,0.00,,OVC065,0.00,84.00,VWS V14.01,2013-03-25 12:58:00,
2013-03-25 09:03:00,35.0,20.5,29.51,NNE,16,8.0,8.0,55,0.00,,OVC035,0.00,91.00,VWS V14.01,2013-03-25 13:03:00,
2013-03-25 09:08:00,35.0,20.9,29.51,North,11,9.0,10.0,56,0.00,,OVC035,0.00,95.00,VWS V14.01,2013-03-25 13:08:00,
2013-03-25 09:14:00,34.9,20.4,29.51,East,83,2.0,13.0,55,0.00,,OVC035,0.00,104.00,VWS V14.01,2013-03-25 13:14:00,
2013-03-25 09:18:00,35.0,20.5,29.50,North,6,6.0,13.0,55,0.00,,OVC035,0.00,109.00,VWS V14.01,2013-03-25 13:18:00,
2013-03-25 09:23:00,35.2,20.2,29.50,NE,44,4.0,10.0,54,0.00,,OVC035,0.00,114.00,VWS V14.01,2013-03-25 13:23:00,
2013-03-25 09:28:00,35.3,20.3,29.50,NNE,17,14.0,16.0,54,0.00,,OVC035,0.00,120.00,VWS V14.01,2013-03-25 13:28:00,
2013-03-25 09:33:00,35.3,19.9,29.50,ESE,107,1.0,11.0,53,0.00,,,0.00,120.00,VWS V14.01,2013-03-25 13:33:00,
2013-03-25 09:38:00,35.3,19.9,29.50,East,88,0.0,4.0,53,0.00,,,0.00,134.00,VWS V14.01,2013-03-25 13:38:00,
2013-03-25 09:43:00,35.2,20.2,29.50,NNE,23,11.0,17.0,54,0.00,,,0.00,137.00,VWS V14.01,2013-03-25 13:43:00,
2013-03-25 09:48:00,35.0,20.5,29.49,ENE,64,6.0,13.0,55,0.00,,,0.00,153.00,VWS V14.01,2013-03-25 13:48:00,
2013-03-25 09:53:00,34.9,20.4,29.49,ENE,61,5.0,12.0,55,0.00,,,0.00,150.00,VWS V14.01,2013-03-25 13:53:00,
2013-03-25 09:58:00,35.0,20.9,29.49,ENE,58,10.0,14.0,56,0.00,,,0.00,134.00,VWS V14.01,2013-03-25 13:58:00,
2013-03-25 10:03:00,34.9,20.8,29.49,NNE,14,13.0,19.0,56,0.00,,,0.00,127.00,VWS V14.01,2013-03-25 14:03:00,
2013-03-25 10:08:00,34.7,20.6,29.49,NNE,32,2.0,14.0,56,0.00,,,0.00,127.00,VWS V14.01,2013-03-25 14:08:00,
2013-03-25 10:13:00,34.9,20.8,29.49,NNE,31,6.0,13.0,56,0.00,,,0.00,134.00,VWS V14.01,2013-03-25 14:13:00,
2013-03-25 10:18:00,34.9,20.8,29.49,NNE,27,12.0,12.0,56,0.00,,,0.00,132.00,VWS V14.01,2013-03-25 14:18:00,
2013-03-25 10:23:00,34.9,21.2,29.49,NNE,21,1.0,11.0,57,0.00,,,0.00,137.00,VWS V14.01,2013-03-25 14:23:00,
2013-03-25 10:29:00,35.0,21.3,29.49,ENE,75,2.0,14.0,57,0.00,,,0.00,141.00,VWS V14.01,2013-03-25 14:29:00,
2013-03-25 10:34:00,34.9,21.2,29.48,NE,49,10.0,12.0,57,0.00,,,0.00,134.00,VWS V14.01,2013-03-25 14:34:00,
2013-03-25 10:39:00,34.4,22.0,29.48,NNE,14,14.0,25.0,60,0.00,,,0.00,125.00,VWS V14.01,2013-03-25 14:39:00,
2013-03-25 10:44:00,34.3,21.9,29.48,NNE,18,17.0,17.0,60,0.00,,,0.00,120.00,VWS V14.01,2013-03-25 14:44:00,
2013-03-25 10:49:00,34.1,22.1,29.48,NNE,30,11.0,15.0,61,0.00,,,0.00,118.00,VWS V14.01,2013-03-25 14:49:00,
2013-03-25 10:54:00,33.5,22.6,29.48,NNE,30,6.0,17.0,64,0.00,,,0.00,107.00,VWS V14.01,2013-03-25 14:54:00,
2013-03-25 10:59:00,33.2,23.5,29.48,NNE,31,7.0,10.0,67,0.00,,,0.00,104.00,VWS V14.01,2013-03-25 14:59:00,
2013-03-25 11:04:00,32.9,23.9,29.49,ENE,59,2.0,8.0,69,0.00,,,0.00,84.00,VWS V14.01,2013-03-25 15:04:00,
2013-03-25 11:09:00,32.5,24.2,29.49,NE,34,7.0,12.0,71,0.00,,,0.00,93.00,VWS V14.01,2013-03-25 15:09:00,
2013-03-25 11:14:00,32.1,24.8,29.49,NNE,27,11.0,12.0,74,0.00,,,0.00,109.00,VWS V14.01,2013-03-25 15:14:00,
2013-03-25 11:19:00,31.6,24.9,29.48,ENE,59,3.0,13.0,76,0.00,,,0.00,114.00,VWS V14.01,2013-03-25 15:19:00,
2013-03-25 11:24:00,31.5,25.4,29.48,NE,34,3.0,7.0,78,0.00,,,0.00,120.00,VWS V14.01,2013-03-25 15:24:00,
2013-03-25 11:29:00,31.5,25.8,29.48,NNE,13,7.0,11.0,79,0.00,,,0.00,128.00,VWS V14.01,2013-03-25 15:29:00,
2013-03-25 11:34:00,31.5,26.0,29.48,NNE,28,6.0,12.0,80,0.00,,,0.00,150.00,VWS V14.01,2013-03-25 15:34:00,
2013-03-25 11:39:00,31.5,26.0,29.48,NNE,32,3.0,9.0,80,0.00,,,0.00,172.00,VWS V14.01,2013-03-25 15:39:00,
2013-03-25 11:44:00,31.5,26.4,29.48,NE,37,3.0,8.0,81,0.00,,,0.00,157.00,VWS V14.01,2013-03-25 15:44:00,
2013-03-25 11:49:00,31.6,26.5,29.47,NNE,23,1.0,8.0,81,0.00,,,0.00,125.00,VWS V14.01,2013-03-25 15:49:00,
2013-03-25 11:54:00,31.6,26.5,29.47,NNE,28,7.0,10.0,81,0.00,,,0.00,144.00,VWS V14.01,2013-03-25 15:54:00,
2013-03-25 11:59:00,31.8,26.6,29.47,NNE,17,2.0,3.0,81,0.00,,,0.00,165.00,VWS V14.01,2013-03-25 15:59:00,
2013-03-25 12:04:00,31.8,26.9,29.46,NNE,17,5.0,6.0,82,0.00,,,0.00,160.00,VWS V14.01,2013-03-25 16:04:00,
2013-03-25 12:09:00,31.8,26.9,29.46,NE,37,0.0,3.0,82,0.00,,,0.00,160.00,VWS V14.01,2013-03-25 16:09:00,
2013-03-25 12:14:00,31.8,26.9,29.46,NNE,20,1.0,6.0,82,0.00,,,0.00,179.00,VWS V14.01,2013-03-25 16:14:00,
2013-03-25 12:19:00,31.8,26.9,29.46,North,11,3.0,5.0,82,0.00,,,0.00,179.00,VWS V14.01,2013-03-25 16:19:00,
2013-03-25 12:24:00,32.1,27.2,29.46,NNE,32,6.0,7.0,82,0.01,,,0.01,174.00,VWS V14.01,2013-03-25 16:24:00,
2013-03-25 12:29:00,31.9,27.0,29.46,NNE,25,5.0,10.0,82,0.01,,,0.01,165.00,VWS V14.01,2013-03-25 16:29:00,
2013-03-25 12:34:00,31.9,27.3,29.45,NNE,25,1.0,5.0,83,0.01,,,0.01,169.00,VWS V14.01,2013-03-25 16:34:00,
2013-03-25 12:39:00,32.1,27.5,29.45,NNE,20,4.0,5.0,83,0.01,,,0.01,155.00,VWS V14.01,2013-03-25 16:39:00,
2013-03-25 12:44:00,32.2,27.6,29.44,NNE,17,5.0,5.0,83,0.01,,,0.01,222.00,VWS V14.01,2013-03-25 16:44:00,
2013-03-25 12:49:00,32.4,27.8,29.44,NNE,18,2.0,3.0,83,0.01,,,0.01,260.00,VWS V14.01,2013-03-25 16:49:00,
2013-03-25 12:54:00,32.5,27.9,29.44,NNE,16,7.0,7.0,83,0.01,,,0.01,273.00,VWS V14.01,2013-03-25 16:54:00,
2013-03-25 12:59:00,32.5,27.9,29.44,NNE,17,4.0,7.0,83,0.01,,,0.01,303.00,VWS V14.01,2013-03-25 16:59:00,
2013-03-25 13:04:00,32.5,27.9,29.43,NNE,23,3.0,4.0,83,0.01,,,0.01,336.00,VWS V14.01,2013-03-25 17:04:00,
2013-03-25 13:09:00,32.9,28.3,29.43,NE,42,0.0,8.0,83,0.01,,,0.01,354.00,VWS V14.01,2013-03-25 17:09:00,
2013-03-25 13:14:00,33.2,28.6,29.42,North,7,3.0,7.0,83,0.01,,,0.01,306.00,VWS V14.01,2013-03-25 17:14:00,
2013-03-25 13:19:00,33.2,28.3,29.42,NNE,18,8.0,8.0,82,0.01,,,0.01,243.00,VWS V14.01,2013-03-25 17:19:00,
2013-03-25 13:24:00,33.5,28.6,29.42,NE,42,7.0,10.0,82,0.01,,,0.01,143.00,VWS V14.01,2013-03-25 17:24:00,
2013-03-25 13:29:00,33.7,28.2,29.42,North,0,6.0,14.0,80,0.00,,,0.01,132.00,VWS V14.01,2013-03-25 17:29:00,
2013-03-25 13:34:00,33.8,28.0,29.41,North,11,8.0,10.0,79,0.00,,,0.01,125.00,VWS V14.01,2013-03-25 17:34:00,
2013-03-25 13:39:00,34.1,28.0,29.41,NE,40,2.0,10.0,78,0.00,,,0.01,188.00,VWS V14.01,2013-03-25 17:39:00,
2013-03-25 13:44:00,34.4,28.0,29.41,North,3,7.0,11.0,77,0.00,,,0.01,202.00,VWS V14.01,2013-03-25 17:44:00,
2013-03-25 13:49:00,35.2,27.8,29.40,NE,47,2.0,19.0,74,0.00,,,0.01,218.00,VWS V14.01,2013-03-25 17:49:00,
2013-03-25 13:54:00,35.8,27.3,29.40,East,88,6.0,8.0,71,0.00,,,0.01,245.00,VWS V14.01,2013-03-25 17:54:00,
2013-03-25 13:59:00,35.9,26.7,29.40,East,79,0.0,7.0,69,0.00,,,0.01,225.00,VWS V14.01,2013-03-25 17:59:00,
2013-03-25 14:04:00,35.9,26.4,29.40,NE,34,0.0,6.0,68,0.00,,OVC038,0.01,229.00,VWS V14.01,2013-03-25 18:04:00,
2013-03-25 14:09:00,36.3,26.4,29.40,NE,38,4.0,6.0,67,0.00,,OVC038,0.01,361.00,VWS V14.01,2013-03-25 18:09:00,
2013-03-25 14:14:00,36.8,26.1,29.39,NNE,20,11.0,13.0,65,0.00,,OVC038,0.01,380.00,VWS V14.01,2013-03-25 18:14:00,
2013-03-25 14:19:00,37.0,26.0,29.39,NE,48,7.0,12.0,64,0.00,,OVC050,0.01,199.00,VWS V14.01,2013-03-25 18:19:00,
2013-03-25 14:24:00,36.9,24.7,29.39,NE,52,7.0,10.0,61,0.00,,OVC050,0.01,185.00,VWS V14.01,2013-03-25 18:24:00,
2013-03-25 14:29:00,36.9,24.7,29.39,NE,55,3.0,8.0,61,0.00,,OVC050,0.01,135.00,VWS V14.01,2013-03-25 18:29:00,
2013-03-25 14:34:00,36.9,25.1,29.39,NE,41,3.0,7.0,62,0.00,,OVC050,0.01,123.00,VWS V14.01,2013-03-25 18:34:00,
2013-03-25 14:39:00,36.6,25.6,29.39,ENE,69,0.0,2.0,64,0.00,,OVC050,0.01,127.00,VWS V14.01,2013-03-25 18:39:00,
2013-03-25 14:44:00,36.3,26.4,29.39,SE,131,8.0,8.0,67,0.00,,OVC050,0.01,202.00,VWS V14.01,2013-03-25 18:44:00,
2013-03-25 14:49:00,36.0,26.8,29.39,East,99,0.0,3.0,69,0.00,,OVC050,0.01,227.00,VWS V14.01,2013-03-25 18:49:00,
2013-03-25 14:54:00,35.8,27.0,29.39,SE,127,0.0,6.0,70,0.00,,OVC050,0.01,195.00,VWS V14.01,2013-03-25 18:54:00,
2013-03-25 14:59:00,35.8,27.0,29.39,NNE,21,3.0,8.0,70,0.00,,OVC050,0.01,211.00,VWS V14.01,2013-03-25 18:59:00,
2013-03-25 15:04:00,35.3,26.9,29.39,NE,55,1.0,6.0,71,0.00,,-RA,0.01,206.00,VWS V14.01,2013-03-25 19:04:00,
2013-03-25 15:09:00,35.6,27.1,29.39,NE,52,6.0,7.0,71,0.00,,-RA,0.01,172.00,VWS V14.01,2013-03-25 19:09:00,
2013-03-25 15:14:00,35.5,27.0,29.38,East,100,0.0,5.0,71,0.00,,-RA,0.01,164.00,VWS V14.01,2013-03-25 19:14:00,
2013-03-25 15:19:00,35.6,27.1,29.38,ESE,104,0.0,1.0,71,0.00,,-RA,0.01,160.00,VWS V14.01,2013-03-25 19:19:00,
2013-03-25 15:24:00,35.8,27.3,29.38,East,100,0.0,0.0,71,0.00,,-RA,0.01,160.00,VWS V14.01,2013-03-25 19:24:00,
2013-03-25 15:29:00,36.0,27.5,29.38,ENE,73,0.0,0.0,71,0.00,,-RA,0.01,165.00,VWS V14.01,2013-03-25 19:29:00,
2013-03-25 15:34:00,36.2,27.7,29.38,ENE,73,0.0,0.0,71,0.00,,-RA,0.01,164.00,VWS V14.01,2013-03-25 19:34:00,
2013-03-25 15:39:00,36.2,27.7,29.38,ESE,103,0.0,0.0,71,0.00,,-RA,0.01,164.00,VWS V14.01,2013-03-25 19:39:00,
2013-03-25 15:44:00,36.0,27.5,29.38,ESE,103,0.0,0.0,71,0.00,,-RA,0.01,165.00,VWS V14.01,2013-03-25 19:44:00,
2013-03-25 15:49:00,36.0,27.5,29.38,ESE,103,0.0,0.0,71,0.00,,-RA,0.01,165.00,VWS V14.01,2013-03-25 19:49:00,
2013-03-25 15:54:00,35.9,27.4,29.38,ESE,103,0.0,0.0,71,0.00,,-RA,0.01,158.00,VWS V14.01,2013-03-25 19:54:00,
2013-03-25 15:59:00,35.8,27.3,29.38,ESE,103,0.0,0.0,71,0.00,,-RA,0.01,150.00,VWS V14.01,2013-03-25 19:59:00,
2013-03-25 16:04:00,35.8,27.3,29.38,East,96,0.0,0.0,71,0.00,,-RA,0.01,155.00,VWS V14.01,2013-03-25 20:04:00,
2013-03-25 16:09:00,35.5,27.0,29.38,East,96,0.0,0.0,71,0.00,,-RA,0.01,151.00,VWS V14.01,2013-03-25 20:09:00,
2013-03-25 16:14:00,35.6,27.1,29.39,East,96,0.0,0.0,71,0.00,,-RA,0.01,148.00,VWS V14.01,2013-03-25 20:14:00,
2013-03-25 16:19:00,35.6,27.1,29.39,East,96,0.0,0.0,71,0.00,,-RA,0.01,137.00,VWS V14.01,2013-03-25 20:19:00,
2013-03-25 16:24:00,35.8,27.3,29.39,East,96,0.0,0.0,71,0.00,,-RA,0.01,125.00,VWS V14.01,2013-03-25 20:24:00,
2013-03-25 16:29:00,35.9,27.4,29.38,East,96,0.0,0.0,71,0.00,,-RA,0.01,118.00,VWS V14.01,2013-03-25 20:29:00,
2013-03-25 16:34:00,36.0,27.5,29.38,North,7,0.0,0.0,71,0.00,,-RA,0.01,107.00,VWS V14.01,2013-03-25 20:34:00,
2013-03-25 16:39:00,36.2,27.7,29.38,WNW,289,0.0,1.0,71,0.00,,-RA,0.01,97.00,VWS V14.01,2013-03-25 20:39:00,
2013-03-25 16:44:00,36.2,28.1,29.39,WNW,287,0.0,0.0,72,0.00,,-RA,0.01,83.00,VWS V14.01,2013-03-25 20:44:00,
2013-03-25 16:49:00,36.2,27.7,29.39,WNW,285,0.0,0.0,71,0.00,,-RA,0.01,79.00,VWS V14.01,2013-03-25 20:49:00,
2013-03-25 16:54:00,36.2,27.7,29.39,WNW,285,2.0,3.0,71,0.00,,-RA,0.01,76.00,VWS V14.01,2013-03-25 20:54:00,
2013-03-25 16:59:00,36.0,27.5,29.38,WNW,285,0.0,0.0,71,0.00,,-RA,0.01,76.00,VWS V14.01,2013-03-25 20:59:00,
2013-03-25 17:04:00,36.0,27.5,29.38,WNW,285,0.0,0.0,71,0.00,,-RA,0.01,76.00,VWS V14.01,2013-03-25 21:04:00,
2013-03-25 17:09:00,36.0,27.5,29.38,WNW,285,0.0,1.0,71,0.00,,-RA,0.01,72.00,VWS V14.01,2013-03-25 21:09:00,
2013-03-25 17:14:00,35.9,27.4,29.39,West,281,0.0,0.0,71,0.00,,-RA,0.01,70.00,VWS V14.01,2013-03-25 21:14:00,
2013-03-25 17:19:00,36.0,27.5,29.39,West,281,0.0,0.0,71,0.00,,-RA,0.01,65.00,VWS V14.01,2013-03-25 21:19:00,
2013-03-25 17:24:00,36.0,27.5,29.39,West,281,0.0,0.0,71,0.00,,-RA,0.01,60.00,VWS V14.01,2013-03-25 21:24:00,
2013-03-25 17:29:00,36.0,27.5,29.39,WNW,287,2.0,2.0,71,0.00,,-RA,0.01,58.00,VWS V14.01,2013-03-25 21:29:00,
2013-03-25 17:34:00,35.9,27.4,29.39,WNW,287,0.0,0.0,71,0.00,,-RA,0.01,56.00,VWS V14.01,2013-03-25 21:34:00,
2013-03-25 17:39:00,36.0,27.5,29.39,WNW,287,0.0,2.0,71,0.00,,-RA,0.01,53.00,VWS V14.01,2013-03-25 21:39:00,
2013-03-25 17:44:00,35.9,27.4,29.39,WNW,287,0.0,0.0,71,0.00,,-RA,0.01,49.00,VWS V14.01,2013-03-25 21:44:00,
2013-03-25 17:49:00,35.9,27.8,29.39,WNW,287,1.0,1.0,72,0.00,,-RA,0.01,46.00,VWS V14.01,2013-03-25 21:49:00,
2013-03-25 17:54:00,35.8,27.7,29.39,WNW,287,0.0,0.0,72,0.00,,-RA,0.01,37.00,VWS V14.01,2013-03-25 21:54:00,
2013-03-25 17:59:00,35.6,27.5,29.40,WNW,287,0.0,1.0,72,0.00,,-RA,0.01,28.00,VWS V14.01,2013-03-25 21:59:00,
2013-03-25 18:04:00,35.5,27.7,29.40,WNW,287,0.0,1.0,73,0.00,,-RA,0.01,25.00,VWS V14.01,2013-03-25 22:04:00,
2013-03-25 18:09:00,35.5,28.0,29.40,WNW,287,0.0,0.0,74,0.00,,-RA,0.01,23.00,VWS V14.01,2013-03-25 22:09:00,
2013-03-25 18:14:00,35.5,28.0,29.41,West,280,1.0,2.0,74,0.00,,-RA,0.01,19.00,VWS V14.01,2013-03-25 22:14:00,
2013-03-25 18:19:00,35.0,27.9,29.41,West,278,1.0,1.0,75,0.00,,-RA,0.01,23.00,VWS V14.01,2013-03-25 22:19:00,
2013-03-25 18:24:00,34.7,27.9,29.41,West,274,0.0,0.0,76,0.00,,-RA,0.01,19.00,VWS V14.01,2013-03-25 22:24:00,
2013-03-25 18:29:00,34.7,28.2,29.41,West,274,0.0,0.0,77,0.00,,-RA,0.01,18.00,VWS V14.01,2013-03-25 22:29:00,
2013-03-25 18:34:00,34.6,28.5,29.41,West,274,0.0,0.0,78,0.00,,-RA,0.01,14.00,VWS V14.01,2013-03-25 22:34:00,
2013-03-25 18:39:00,34.4,28.3,29.41,West,274,0.0,0.0,78,0.00,,-RA,0.01,12.00,VWS V14.01,2013-03-25 22:39:00,
2013-03-25 18:44:00,34.4,28.3,29.41,West,274,0.0,0.0,78,0.00,,-RA,0.01,11.00,VWS V14.01,2013-03-25 22:44:00,
2013-03-25 18:49:00,34.4,28.6,29.41,West,274,0.0,0.0,79,0.00,,-RA,0.01,5.00,VWS V14.01,2013-03-25 22:49:00,
2013-03-25 18:54:00,34.4,28.6,29.41,West,274,0.0,0.0,79,0.00,,-RA,0.01,0.00,VWS V14.01,2013-03-25 22:54:00,
2013-03-25 18:59:00,34.3,28.8,29.42,West,272,0.0,0.0,80,0.00,,-RA,0.01,0.00,VWS V14.01,2013-03-25 22:59:00,
2013-03-25 19:04:00,34.4,28.9,29.42,West,272,0.0,0.0,80,0.00,,-RA,0.01,0.00,VWS V14.01,2013-03-25 23:04:00,
2013-03-25 19:09:00,34.4,28.9,29.42,West,263,0.0,0.0,80,0.00,,-RA,0.01,0.00,VWS V14.01,2013-03-25 23:09:00,
2013-03-25 19:14:00,34.3,28.8,29.42,West,263,0.0,0.0,80,0.00,,-RA,0.01,0.00,VWS V14.01,2013-03-25 23:14:00,
2013-03-25 19:19:00,34.3,28.8,29.42,WSW,256,2.0,2.0,80,0.00,,-RA,0.01,0.00,VWS V14.01,2013-03-25 23:19:00,
2013-03-25 19:24:00,34.3,28.8,29.42,SSE,160,0.0,0.0,80,0.00,,-RA,0.01,0.00,VWS V14.01,2013-03-25 23:24:00,
2013-03-25 19:29:00,34.3,28.8,29.43,SSE,160,0.0,0.0,80,0.00,,-RA,0.01,0.00,VWS V14.01,2013-03-25 23:29:00,
2013-03-25 19:34:00,34.4,29.2,29.43,SSE,160,0.0,0.0,81,0.00,,OVC050,0.01,0.00,VWS V14.01,2013-03-25 23:34:00,
2013-03-25 19:39:00,34.6,29.4,29.43,North,10,6.0,7.0,81,0.00,,OVC050,0.01,0.00,VWS V14.01,2013-03-25 23:39:00,
2013-03-25 19:44:00,35.6,29.1,29.43,North,0,8.0,17.0,77,0.00,,OVC050,0.01,0.00,VWS V14.01,2013-03-25 23:44:00,
2013-03-25 19:49:00,36.6,27.8,29.43,North,0,8.0,11.0,70,0.00,,OVC050,0.01,0.00,VWS V14.01,2013-03-25 23:49:00,
2013-03-25 19:54:00,36.9,25.5,29.43,North,1,10.0,13.0,63,0.00,,OVC050,0.01,0.00,VWS V14.01,2013-03-25 23:54:00,
2013-03-25 19:59:00,37.3,24.7,29.44,North,0,7.0,10.0,60,0.00,,OVC050,0.01,0.00,VWS V14.01,2013-03-25 23:59:00,
2013-03-25 20:04:00,37.5,24.5,29.44,North,353,4.0,6.0,59,0.00,,OVC055,0.01,0.00,VWS V14.01,2013-03-26 00:04:00,
2013-03-25 20:09:00,37.3,23.9,29.44,NNW,340,5.0,7.0,58,0.00,,OVC055,0.01,0.00,VWS V14.01,2013-03-26 00:09:00,
2013-03-25 20:14:00,37.3,23.9,29.44,North,349,6.0,11.0,58,0.00,,OVC055,0.01,0.00,VWS V14.01,2013-03-26 00:14:00,
2013-03-25 20:19:00,37.3,23.9,29.44,North,349,3.0,10.0,58,0.00,,OVC055,0.01,0.00,VWS V14.01,2013-03-26 00:19:00,
2013-03-25 20:24:00,37.5,23.7,29.44,North,0,9.0,14.0,57,0.00,,OVC055,0.01,0.00,VWS V14.01,2013-03-26 00:24:00,
2013-03-25 20:29:00,37.5,23.2,29.46,North,8,13.0,14.0,56,0.00,,OVC055,0.01,0.00,VWS V14.01,2013-03-26 00:29:00,
2013-03-25 20:34:00,37.6,23.3,29.46,North,7,9.0,13.0,56,0.00,,OVC055,0.01,0.00,VWS V14.01,2013-03-26 00:34:00,
2013-03-25 20:39:00,37.6,23.3,29.46,North,356,11.0,11.0,56,0.00,,OVC055,0.01,0.00,VWS V14.01,2013-03-26 00:39:00,
2013-03-25 20:44:00,37.6,23.3,29.46,NNE,25,12.0,16.0,56,0.00,,OVC055,0.01,0.00,VWS V14.01,2013-03-26 00:44:00,
2013-03-25 20:49:00,37.5,23.7,29.46,NNE,16,11.0,16.0,57,0.00,,OVC055,0.01,0.00,VWS V14.01,2013-03-26 00:49:00,
2013-03-25 20:54:00,37.2,23.4,29.46,NNE,27,6.0,18.0,57,0.00,,OVC055,0.01,0.00,VWS V14.01,2013-03-26 00:54:00,
2013-03-25 20:59:00,37.2,24.2,29.47,NNE,18,10.0,13.0,59,0.00,,OVC055,0.01,0.00,VWS V14.01,2013-03-26 00:59:00,
2013-03-25 21:04:00,36.9,24.3,29.47,NE,49,6.0,11.0,60,0.00,,OVC060,0.01,0.00,VWS V14.01,2013-03-26 01:04:00,
2013-03-25 21:09:00,36.5,24.7,29.47,NNE,21,8.0,12.0,62,0.00,,OVC060,0.01,0.00,VWS V14.01,2013-03-26 01:09:00,
2013-03-25 21:14:00,36.5,24.7,29.48,North,6,8.0,10.0,62,0.00,,OVC060,0.01,0.00,VWS V14.01,2013-03-26 01:14:00,
2013-03-25 21:19:00,36.6,24.8,29.48,North,0,6.0,10.0,62,0.00,,OVC060,0.01,0.00,VWS V14.01,2013-03-26 01:19:00,
2013-03-25 21:24:00,36.6,24.8,29.48,North,3,7.0,10.0,62,0.00,,OVC060,0.01,0.00,VWS V14.01,2013-03-26 01:24:00,
2013-03-25 21:29:00,36.6,25.2,29.49,North,7,12.0,12.0,63,0.00,,OVC060,0.01,0.00,VWS V14.01,2013-03-26 01:29:00,
2013-03-25 21:34:00,36.6,24.8,29.49,North,0,7.0,9.0,62,0.00,,OVC060,0.01,0.00,VWS V14.01,2013-03-26 01:34:00,
2013-03-25 21:39:00,36.5,24.7,29.49,North,0,8.0,11.0,62,0.00,,OVC060,0.01,0.00,VWS V14.01,2013-03-26 01:39:00,
2013-03-25 21:44:00,36.8,24.6,29.49,North,8,10.0,13.0,61,0.00,,OVC060,0.01,0.00,VWS V14.01,2013-03-26 01:44:00,
2013-03-25 21:49:00,36.9,23.9,29.49,North,0,11.0,14.0,59,0.00,,OVC060,0.01,0.00,VWS V14.01,2013-03-26 01:49:00,
2013-03-25 21:54:00,36.9,23.1,29.49,North,0,5.0,14.0,57,0.00,,OVC060,0.01,0.00,VWS V14.01,2013-03-26 01:54:00,
2013-03-25 21:59:00,36.9,22.7,29.49,North,354,5.0,11.0,56,0.00,,OVC060,0.01,0.00,VWS V14.01,2013-03-26 01:59:00,
2013-03-25 22:04:00,36.9,22.3,29.49,North,349,5.0,9.0,55,0.00,,OVC070,0.01,0.00,VWS V14.01,2013-03-26 02:04:00,
2013-03-25 22:09:00,37.0,22.8,29.49,North,356,6.0,16.0,56,0.00,,OVC070,0.01,0.00,VWS V14.01,2013-03-26 02:09:00,
2013-03-25 22:14:00,37.0,23.2,29.49,North,354,7.0,11.0,57,0.00,,OVC070,0.01,0.00,VWS V14.01,2013-03-26 02:14:00,
2013-03-25 22:19:00,36.9,22.7,29.49,North,356,7.0,7.0,56,0.00,,OVC070,0.01,0.00,VWS V14.01,2013-03-26 02:19:00,
2013-03-25 22:24:00,36.8,23.4,29.49,North,3,10.0,10.0,58,0.00,,OVC070,0.01,0.00,VWS V14.01,2013-03-26 02:24:00,
2013-03-25 22:29:00,36.8,23.8,29.49,NNE,20,10.0,10.0,59,0.00,,OVC070,0.01,0.00,VWS V14.01,2013-03-26 02:29:00,
2013-03-25 22:34:00,36.9,24.3,29.49,North,3,6.0,9.0,60,0.00,,OVC070,0.01,0.00,VWS V14.01,2013-03-26 02:34:00,
2013-03-25 22:39:00,36.8,24.2,29.49,North,3,3.0,5.0,60,0.00,,OVC070,0.01,0.00,VWS V14.01,2013-03-26 02:39:00,
2013-03-25 22:44:00,36.6,23.6,29.50,North,0,6.0,6.0,59,0.00,,OVC070,0.01,0.00,VWS V14.01,2013-03-26 02:44:00,
2013-03-25 22:49:00,36.8,24.2,29.50,North,0,3.0,8.0,60,0.00,,OVC070,0.01,0.00,VWS V14.01,2013-03-26 02:49:00,
2013-03-25 22:54:00,36.6,23.6,29.50,North,1,6.0,7.0,59,0.00,,OVC070,0.01,0.00,VWS V14.01,2013-03-26 02:54:00,
2013-03-25 22:59:00,36.6,23.6,29.50,North,1,3.0,6.0,59,0.00,,OVC070,0.01,0.00,VWS V14.01,2013-03-26 02:59:00,
2013-03-25 23:04:00,36.5,23.5,29.50,North,359,7.0,9.0,59,0.00,,OVC080,0.01,0.00,VWS V14.01,2013-03-26 03:04:00,
2013-03-25 23:09:00,36.6,23.6,29.50,North,0,8.0,13.0,59,0.00,,OVC080,0.01,0.00,VWS V14.01,2013-03-26 03:09:00,
2013-03-25 23:14:00,36.5,23.5,29.50,NNW,336,8.0,8.0,59,0.00,,OVC080,0.01,0.00,VWS V14.01,2013-03-26 03:14:00,
2013-03-25 23:19:00,36.2,23.7,29.50,North,359,6.0,8.0,60,0.00,,OVC080,0.01,0.00,VWS V14.01,2013-03-26 03:19:00,
2013-03-25 23:24:00,36.0,23.9,29.50,North,0,5.0,10.0,61,0.00,,OVC080,0.01,0.00,VWS V14.01,2013-03-26 03:24:00,
2013-03-25 23:29:00,36.0,24.3,29.51,North,349,6.0,10.0,62,0.00,,OVC080,0.01,0.00,VWS V14.01,2013-03-26 03:29:00,
2013-03-25 23:34:00,35.9,24.2,29.51,North,0,3.0,4.0,62,0.00,,OVC080,0.01,0.00,VWS V14.01,2013-03-26 03:34:00,
2013-03-25 23:39:00,35.8,24.5,29.51,North,0,2.0,5.0,63,0.00,,OVC080,0.01,0.00,VWS V14.01,2013-03-26 03:39:00,
2013-03-25 23:44:00,35.8,24.5,29.51,North,0,0.0,0.0,63,0.00,,OVC080,0.01,0.00,VWS V14.01,2013-03-26 03:44:00,
2013-03-25 23:49:00,35.6,24.3,29.51,North,0,0.0,0.0,63,0.00,,OVC080,0.01,0.00,VWS V14.01,2013-03-26 03:49:00,
2013-03-25 23:54:00,35.6,24.6,29.51,North,0,0.0,0.0,64,0.00,,OVC080,0.01,0.00,VWS V14.01,2013-03-26 03:54:00,
2013-03-25 23:59:00,35.6,24.6,29.51,North,0,0.0,0.0,64,0.00,,OVC080,0.01,0.00,VWS V14.01,2013-03-26 03:59:00,